User: anonymous   Login
Location: NJAA Observatory
(40.6819°N, 74.8979°W)
Time: 20:22:00
(UTC-04:00)
Language:

Iridium 4 - Orbit

View from above orbital plane
View from above orbital plane
View from above satellite
View from above satellite

Ground track
Ground track

The orbit data is extracted from the following two-line orbital elements,

1 24796U 97020E   16240.52965541  .00000089  00000-0  24333-4 0  9992
2 24796  86.3917  80.8200 0002115  85.8800 303.9912 14.35098335 11189
Epoch (UTC): 27 August 2016 12:42:42
Eccentricity: 0.0002115
inclination: 86.3917°
perigee height: 773 km
apogee height: 776 km
right ascension of ascending node: 80.8200°
argument of perigee: 85.8800°
revolutions per day: 14.35098335
mean anomaly at epoch: 303.9912°
orbit number at epoch: 1118

The dashed part of the orbit path shows where the satellite is in the earth's shadow,  

DLR